Epoch 2005 Nov. 6.0 TT = JDT 2453680.5 T 2005 Nov. 17.27636 TT MPC q 0.0481354 (2000.0) P Q n 0.17042496 Peri. 23.18018 -0.20025215 -0.88774092 a 3.2219138 Node 80.48244 +0.82018332 -0.38331432 e 0.9850600 Incl. 24.85297 +0.53590894 +0.25492388 P 5.78